This demonstration page uses our WeatherBlox Daily Observations layout. Learn more.

Left ArrowRight Arrow

Hourly Observations for July 21, 2020

Temp ( °F °C ) Dew Point ( °F °C ) Humidity (%) Winds ( mph kmh ) Pressure ( in mb ) Visibility ( mi km ) Precip ( " mm )
12:26 am 00:26 Cloudy with Thunderstorms 75 23.9 67 19.4 76 76 E 5 7 29.92 1013 10 16.0934 0 0
12:41 am 00:41 Mostly Cloudy with Nearby Thunderstorms 75 23.9 67 19.4 76 76 E 5 7 29.91 1013 10 16.0934 0 0
12:54 am 00:54 Cloudy 75 23.9 67 19.4 76 76 ESE 8 13 29.91 1013 10 16.0934 0 0
1:54 am 01:54 Mostly Cloudy with Light Rain 72 22.2 68 20 87 87 ENE 5 7 29.91 1013 10 16.0934 0.001 0.001
2:21 am 02:21 Cloudy with Nearby Thunderstorms 73 22.8 68 20 84 84 E 10 17 29.92 1013 10 16.0934 0.001 0.001
2:34 am 02:34 Cloudy with Light Rain 73 22.8 68 20 84 84 ESE 10 17 29.92 1013 9 14.48406 0.001 0.001
2:42 am 02:42 Cloudy with Heavy Thunderstorms 72 22.2 69 20.6 91 91 SE 10 17 29.92 1013 2.5 4.02335 0.11 2.794
2:54 am 02:54 Cloudy with Heavy Thunderstorms 73 22.8 69 20.6 87 87 S 10 17 29.93 1014 3 4.82802 0.47 11.938
2:57 am 02:57 Cloudy with Nearby Thunderstorms 73 22.8 69 20.6 87 87 SSW 8 13 29.93 1013 2.5 4.02335 0.08 2.032
3:08 am 03:08 Cloudy with Heavy Thunderstorms 72 22.2 69 20.6 91 91 S 17 28 29.93 1013 2.5 4.02335 0.27 6.858
3:23 am 03:23 Cloudy with Heavy Thunderstorms 72 22.2 69 20.6 91 91 S 8 13 29.94 1014 3 4.82802 0.61 15.494
3:42 am 03:42 Cloudy with Thunderstorms 71 21.7 68 20 90 90 S 6 9 29.94 1014 5 8.0467 0.68 17.272
3:45 am 03:45 Cloudy with Nearby Thunderstorms 71 21.7 68 20 90 90 S 5 7 29.94 1014 5 8.0467 0.7 17.78
3:49 am 03:49 Cloudy with Heavy Thunderstorms 70 21 68 20 94 94 S 5 7 29.94 1014 5 8.0467 0.71 18.034
3:54 am 03:54 Cloudy with Heavy Thunderstorms 70 21.1 68 20 93 93 S 5 7 29.94 1014 4 6.43736 0.74 18.796
4:04 am 04:04 Cloudy with Nearby Thunderstorms 70 21.1 68 20 93 93 S 5 7 29.93 1014 5 8.0467 0.09 2.286
4:07 am 04:07 Cloudy with Rain 70 21.1 68 20 93 93 S 6 9 29.94 1014 6 9.65604 0.1 2.54
4:14 am 04:14 Cloudy with Rain 70 21.1 68 20 93 93 S 8 13 29.94 1014 6 9.65604 0.13 3.302
4:22 am 04:22 Cloudy with Nearby Thunderstorms 70 21.1 67 19.4 90 90 S 13 20 29.93 1014 7 11.26538 0.15 3.81
4:29 am 04:29 Cloudy with Nearby Thunderstorms 70 21.1 66 18.9 87 87 S 14 22 29.93 1014 7 11.26538 0.17 4.318
4:54 am 04:54 Cloudy with Rain 70 21.1 65 18.3 84 84 SE 16 26 29.91 1013 7 11.26538 0.25 6.35
5:54 am 05:54 Clear with Light Rain 70 21.1 66 18.9 87 87 VRB 5 7 29.89 1012 10 16.0934 0.1 2.54
6:54 am 06:54 Cloudy 71 21.7 65 18.3 81 81 W 5 7 29.9 1013 10 16.0934 0.001 0.001
7:54 am 07:54 Sunny 71 21.7 66 18.9 84 84 Calm 29.93 1014 10 16.0934 0 0
8:54 am 08:54 Sunny 73 22.8 67 19.4 81 81 W 5 7 29.95 1014 10 16.0934 0 0
9:54 am 09:54 Mostly Cloudy 75 23.9 66 18.9 74 74 Calm 29.96 1015 10 16.0934 0 0
10:23 am 10:23 Cloudy 74 23.3 65 18.3 74 74 Calm 29.94 1014 10 16.0934 0 0
10:54 am 10:54 Cloudy 76 24.4 66 18.9 72 72 VRB 3 6 29.96 1015 10 16.0934 0 0
11:54 am 11:54 Cloudy 79 26.1 67 19.4 67 67 VRB 5 7 29.95 1014 10 16.0934 0 0
12:54 pm 12:54 Mostly Cloudy 80 26.7 67 19.4 64 64 VRB 3 6 29.94 1014 10 16.0934 0 0
1:31 pm 13:31 Mostly Cloudy 81 27.2 68 20 65 65 Calm 29.92 1013 10 16.0934 0 0
1:54 pm 13:54 Mostly Sunny 82 27.8 66 18.9 58 58 ESE 5 7 29.93 1014 10 16.0934 0 0
2:54 pm 14:54 Mostly Cloudy 81 27.2 66 18.9 61 61 Calm 29.93 1014 10 16.0934 0 0
3:54 pm 15:54 Sunny 84 28.9 66 18.9 55 55 Calm 29.91 1013 10 16.0934 0 0
4:54 pm 16:54 Partly Cloudy 85 29.4 67 19.4 55 55 ENE 6 9 29.89 1012 10 16.0934 0 0
5:54 pm 17:54 Partly Cloudy 85 29.4 67 19.4 55 55 Calm 29.89 1012 10 16.0934 0 0
6:54 pm 18:54 Sunny 86 30 66 18.9 51 51 VRB 3 6 29.88 1012 10 16.0934 0 0
7:54 pm 19:54 Sunny 82 27.8 67 19.4 60 60 Calm 29.9 1013 10 16.0934 0 0
8:54 pm 20:54 Cloudy 82 27.8 67 19.4 60 60 SW 5 7 29.91 1013 10 16.0934 0 0
9:54 pm 21:54 Mostly Cloudy 79 26.1 69 20.6 72 72 NNE 6 9 29.94 1014 10 16.0934 0 0
10:54 pm 22:54 Clear 73 22.8 66 18.9 79 79 N 7 11 29.96 1015 10 16.0934 0 0
11:54 pm 23:54 Partly Cloudy 73 22.8 66 18.9 79 79 N 7 11 29.98 1015 10 16.0934 0 0

Powered by AerisWeather